Regional Weather Roundup
Issued by NWS

Home | Current Version | Previous Version | Text Only | Print | Product List | Glossary On
Versions: 1 2 3 4 5 6 7 8 9 10 11 12 13 14 15 16 17 18 19 20 21 22 23 24 25 26 27 28 29 30 31 32 33 34 35 36 37 38 39 40 41 42 43 44 45 46 47 48 49 50
000
ASUS45 KTFX 131804
RWRMT
MONTANA HOURLY WEATHER ROUNDUP
NATIONAL WEATHER SERVICE GREAT FALLS MT
1204 PM MDT SUN JUL 13 2014

NOTE: "FAIR" INDICATES FEW OR NO CLOUDS BELOW 12000 FEET WITH NO
SIGNIFICANT WEATHER AND/OR OBSTRUCTIONS TO VISIBILITY.

* THESE STATIONS ARE NOT UNDER NWS QUALITY CONTROL. THEY DO NOT
   REPORT WEATHER SUCH AS PRECIPITATION OR FOG.

MTZ001>007-043-131900-
WEST OF THE DIVIDE
CITY           SKY/WX    TMP DP  RH WIND       PRES   REMARKS
KALISPELL      SUNNY     81  52  37 N3        30.20F
MISSOULA       SUNNY     82  45  27 SE6       30.21F
MULLAN PASS    SUNNY     73  46  38 VRB5      30.38S
* ESSEX        N/A       81  46  29 W1G6       N/A
* LINCOLN      N/A       76  49  39 SW4        N/A
* LOOKOUT PASS N/A       79  48  34 SE5        N/A
* POLSON       N/A       82  55  40 N2         N/A   HI  81
* RONAN APT    SUNNY     81  52  37 N/A        N/A
* SEELEY LAKE  N/A       81  45  28 SW5        N/A
* THOMP F APT  SUNNY     79  47  32 S4G12      N/A
* YAAK HILL    N/A       83  51  33 W2         N/A
$$

MTZ008-052>055-131900-
SOUTHWEST MONTANA
CITY           SKY/WX    TMP DP  RH WIND       PRES   REMARKS
W YELLOWSTONE  SUNNY     73  43  34 SE6       30.42F
* THREE FORKS  SUNNY     81  81 100 N/A        N/A   HI  91
* BOULDER HILL N/A       78  46  32 SW6G11     N/A
* MONIDA PASS  N/A       77  46  33 NE5        N/A
* RAYNOLDS PAS N/A       73  57  57 S5         N/A
* WHITEHALL    N/A       82  55  40 S4         N/A   HI  81
* WISE RIVER   N/A       76  51  42 NW4        N/A
$$

MTZ009>010-012-014-046-048-049-054-131900-
EAST SLOPES AND CENTRAL MONTANA
CITY           SKY/WX    TMP DP  RH WIND       PRES   REMARKS
MALMSTROM AFB  SUNNY     81  43  26 E9        30.26F
* CONRAD       SUNNY     79  55  44 N/A        N/A
* DEARBORN     N/A       79  49  35 VRB10      N/A
* EAST GLACIER N/A       76  51  42 SE4G9      N/A
* MONARCH      N/A       77  37  24 NE5        N/A
* ROGERS PASS  N/A       78  44  30 SW4G10     N/A
* SAINT MARY   N/A       79  52  39 N4         N/A
* SWEET GRASS  N/A       80  47  31 SE2G8      N/A
$$

MTZ011-013-016-021-035-040-045-047-050-051-131900-
NORTH CENTRAL MONTANA
CITY           SKY/WX    TMP DP  RH WIND       PRES   REMARKS
* CHESTER      N/A       85  44  24 S1G8       N/A
* DENTON       N/A       84  46  26 NE6G11     N/A
* GEYSER       N/A       82  43  25 NE7G14     N/A
* JUDITH GAP   N/A       78  48  35 VRB13G19    N/A
* LOMA         N/A       81  49  33 NE5        N/A
$$

MTZ017>020-022>027-061-062-131900-
NORTHEAST MONTANA
CITY           SKY/WX    TMP DP  RH WIND       PRES   REMARKS
GLENDIVE       SUNNY     75  39  27 N13G22    30.19F
JORDAN         SUNNY     81  46  29 W8G20     30.18F
SIDNEY         SUNNY     73  39  29 N15       30.17F
* BEAVER HILL  N/A       71  41  34 NW14G22    N/A
* CIRCLE       N/A       74  45  36 NE8        N/A
* LINDSAY DVD  N/A       70  40  34 N12G18     N/A
* NAVAJO       N/A       68  44  42 NW16G24    N/A
$$

MTZ028>042-056>058-131900-
SOUTHCENTRAL AND SOUTHEAST MONTANA
CITY           SKY/WX    TMP DP  RH WIND       PRES   REMARKS
BILLINGS       SUNNY     81  52  37 S5        30.23F
* LAUREL APT   SUNNY     82  48  31 N/A        N/A
* ROUNDUP APT  SUNNY     84  45  26 N9         N/A
* ALZADA       N/A       81  46  29 NW7        N/A
* HYSHAM       N/A       83  48  30 W2G8       N/A
* LAME DEER    N/A       76  46  35 NE4        N/A
* REED POINT   N/A       86  51  30 W3G8       N/A
* ROSCOE HILL  N/A       78  39  25 VRB8       N/A
$$

REGIONAL REPORTS...DAKOTAS
CITY           SKY/WX    TMP DP  RH WIND       PRES   REMARKS
WILLISTON      SUNNY     73  36  26 NW15G26   30.15F
DICKINSON      SUNNY     72  43  35 NW20      30.13F
CROSBY         SUNNY     66  43  43 NW24G29   30.13F
WATFORD CITY   SUNNY     70  41  35 NW14G20   30.13F
BISMARCK       SUNNY     73  43  34 NW16G21   30.09F
GRAND FORKS    PTSUNNY   68  46  45 NW21G30   29.93S
FARGO          SUNNY     73  45  37 W18G29    29.95F
BUFFALO SD     SUNNY     77  54  45 NW14      30.11F
RAPID CITY     SUNNY     81  48  32 N9        30.18F
$$

REGIONAL REPORTS...WYOMING/IDAHO/WASHINGTON
CITY           SKY/WX    TMP DP  RH WIND       PRES   REMARKS
GILLETTE       SUNNY     84  43  24 NW15G20   30.25S
CODY           SUNNY     81  52  37 NE5       30.32S
YELLOWSTONE LA SUNNY     63  54  73 CALM      30.54S
MULLAN PASS    SUNNY     73  46  38 VRB5      30.38S
SAND POINT     SUNNY     79  55  44 E7        30.15F
SPOKANE        SUNNY     84  48  29 E5        30.14F

$$




USA.gov is the U.S. government's official web portal to all federal, state and local government web resources and services.